STARLINK-33641, 63718

Orbit data source: Space-Track

STARLINK-33641, 63718 is a payload satellite owned by SpaceX/Seattle (US) in LEO that was launched on Mon, 28 Apr 2025 UTC via an FALCON 9 launch vehicle from the Air Force Western Test Range (AFWTR). Payload-class satellites include a variety of spacecraft equipped with specific instruments for various scientific and technological missions. These include communications satellites like Starlink; space stations such as the ISS; scientific satellites like the Hubble; Earth observation satellites from companies like Planet Labs, Umbra, and HawkEye 360; GPS; miniature CubeSats for education and research; and military/defense satellites.

Loading next visibility...
Identifier
63718, 2025-087X
Orbit
LEO
Country
Flag of USUS
Related business
Manufacturer
SpaceX/Seattle
Mission
Operational Commercial Communications
Bus & Motor
STARLINK V2MO, Unknown motor
Mass
575 kg wet, ~530 kg dry
Launch date (UTC)
2025-04-28 (8 months ago)
Launch vehicle
FALCON 9
Launch site
Air Force Western Test Range (AFWTR)
Object type
Payload
Rocket body
Debris
Shape & HBR
Box + 2 Pan, 17.7 m
Radar Cross Section
36.964 m², Large (>1 m²)

Expand to show TLE details & history
Last TLE update: 6 hours ago

TLE from 6 hours ago
0 STARLINK-33641
1 63718U 25087X   25349.92394930  .00023315  00000-0  79592-3 0  9998
2 63718  53.1607 248.7106 0001271 105.4215 254.6926 15.30237451 36370
Epoch: 2025-12-15T22:10Z
TLE epoch observation values (Epoch: 2025-12-15T22:10:29.219Z)
Latitude
-0.00004°
Longitude
-168.72672°
Altitude
476.233 km
Speed
7.629 km/s
True Right ascension
16h 34m 50s
True Declination
0° 00' 00"
Sunlit
Object was in daylight at epoch
Visualization orbit readout
Latitude
Unknown
Longitude
Unknown
Altitude
Unknown
Speed
Unknown
Apparent Right ascension
Unknown
Apparent Declination
Unknown
Sunlit
N/A
Visualization observer readout
Local Sidereal Time
03:08:08
Azimuth
Unknown
Elevation
Unknown
Doppler factor
Unknown
Orbital elements
Apogee altitude
476.231 km
Perigee altitude
474.488 km
Semi-major axis
6,853.497 km
Eccentricity
0.00013
Inclination
53.1607°
RAAN
248.7106°
Arg. of periapsis
105.4215°
True anomaly
254.67855°
Mean anomaly
254.6926°
Eccentric anomaly
254.68558°
Mean motion
3.82538 °/min
Orbital period
94.11 mins
BSTAR
0.00079592
Loading maneuver chart data...
Computing Atmospheric mass density...
Loading historical data...
Loading historical data...
Loading historical data...
Loading historical data...
Loading historical data...
Loading historical data...
Loading historical data...

Documentation

Showing up to 5 results
|